When you browse on this site, cookies collect data to enhance your experience and personalize the content and advertising you see.
Visit our Privacy Policy to learn more. By continuing to use the site, you agree to this use of cookies and data.
  • En España
  • Lista de países
  • Para 7 días
  • Temperatura del agua
  • El tiempo en el mapa
  • Informadores
  • user-avatar
    Iniciar sesión

    Tiempo cada hora La Rioja

    Hoy, 6 Junio, Sábado

    Tiempo Temperatura Precipitaciones Viento Presión Humedad
    00:00 +10°C° 0 mm 0 mps 715 mmHg 53%
    01:00 +10°C° 0 mm 0 mps 715 mmHg 54%
    02:00 +9°C° 0 mm 0 mps 715 mmHg 54%
    03:00 +9°C° 0 mm 0 mps 714 mmHg 56%
    04:00 +8°C° 0 mm 0 mps 714 mmHg 57%
    05:00 +8°C° 0 mm 0 mps 713 mmHg 59%
    06:00 +10°C° 0 mm 1 mps 714 mmHg 55%
    07:00 +10°C° 0 mm 1 mps 714 mmHg 52%
    08:00 +11°C° 0 mm 1 mps 714 mmHg 48%
    09:00 +14°C° 0 mm 1 mps 714 mmHg 41%
    10:00 +16°C° 0 mm 1 mps 714 mmHg 34%
    11:00 +20°C° 0 mm 1 mps 715 mmHg 27%
    12:00 +20°C° 0 mm 2 mps 714 mmHg 25%
    13:00 +21°C° 0 mm 2 mps 713 mmHg 24%
    14:00 +23°C° 0 mm 2 mps 713 mmHg 23%
    15:00 +22°C° 0 mm 1 mps 712 mmHg 26%
    16:00 +21°C° 0 mm 1 mps 712 mmHg 30%
    17:00 +20°C° 0 mm 1 mps 712 mmHg 33%
    18:00 +19°C° 0 mm 1 mps 712 mmHg 36%
    19:00 +16°C° 0 mm 1 mps 712 mmHg 38%
    20:00 +14°C° 0 mm 1 mps 712 mmHg 40%
    21:00 +14°C° 0 mm 1 mps 712 mmHg 43%
    22:00 +13°C° 0 mm 1 mps 712 mmHg 45%
    23:00 +13°C° 0 mm 1 mps 712 mmHg 48%

    Mañana, 7 Junio, Domingo

    Tiempo Temperatura Precipitaciones Viento Presión Humedad
    00:00 +12°C° 0 mm 2 mps 711 mmHg 52%
    01:00 +12°C° 0 mm 2 mps 711 mmHg 56%
    02:00 +10°C° 0 mm 2 mps 711 mmHg 60%
    03:00 +10°C° 0 mm 2 mps 711 mmHg 61%
    04:00 +10°C° 0 mm 2 mps 711 mmHg 63%
    05:00 +10°C° 0 mm 1 mps 711 mmHg 65%
    06:00 +10°C° 0 mm 2 mps 712 mmHg 62%
    07:00 +10°C° 0 mm 2 mps 712 mmHg 59%
    08:00 +10°C° 0 mm 2 mps 713 mmHg 56%
    09:00 +14°C° 0 mm 2 mps 713 mmHg 49%
    10:00 +16°C° 0 mm 2 mps 714 mmHg 42%
    11:00 +19°C° 0 mm 2 mps 714 mmHg 36%
    12:00 +20°C° 0 mm 2 mps 714 mmHg 35%
    13:00 +20°C° 0 mm 2 mps 713 mmHg 33%
    14:00 +21°C° 0 mm 2 mps 712 mmHg 32%
    15:00 +22°C° 0 mm 1 mps 712 mmHg 35%
    16:00 +21°C° 0 mm 1 mps 712 mmHg 38%
    17:00 +20°C° 0 mm 1 mps 712 mmHg 41%
    18:00 +19°C° 0 mm 1 mps 713 mmHg 44%
    19:00 +16°C° 0 mm 1 mps 713 mmHg 47%
    20:00 +15°C° 0 mm 1 mps 713 mmHg 50%
    21:00 +14°C° 0 mm 2 mps 713 mmHg 51%
    22:00 +14°C° 0 mm 2 mps 713 mmHg 53%
    23:00 +13°C° 0 mm 2 mps 714 mmHg 54%

    Pasado mañana, 8 Junio, Lunes

    Tiempo Temperatura Precipitaciones Viento Presión Humedad
    00:00 +13°C° 0 mm 1 mps 714 mmHg 58%
    01:00 +12°C° 0 mm 1 mps 714 mmHg 61%
    02:00 +12°C° 0 mm 1 mps 714 mmHg 65%
    03:00 +12°C° 0 mm 1 mps 714 mmHg 67%
    04:00 +11°C° 0 mm 1 mps 714 mmHg 70%
    05:00 +11°C° 0 mm 1 mps 714 mmHg 72%
    06:00 +11°C° 0 mm 1 mps 714 mmHg 69%
    07:00 +12°C° 0 mm 1 mps 714 mmHg 67%
    08:00 +11°C° 0 mm 0 mps 714 mmHg 64%
    09:00 +15°C° 0 mm 1 mps 715 mmHg 56%
    10:00 +18°C° 0 mm 1 mps 715 mmHg 47%
    11:00 +21°C° 0 mm 1 mps 715 mmHg 39%
    12:00 +22°C° 0 mm 1 mps 715 mmHg 38%
    13:00 +21°C° 0 mm 2 mps 714 mmHg 36%
    14:00 +23°C° 0 mm 2 mps 713 mmHg 35%
    15:00 +21°C° 0 mm 2 mps 713 mmHg 38%
    16:00 +22°C° 0 mm 1 mps 713 mmHg 41%
    17:00 +21°C° 0 mm 1 mps 713 mmHg 43%
    18:00 +19°C° 0 mm 1 mps 713 mmHg 49%
    19:00 +18°C° 0 mm 1 mps 714 mmHg 54%
    20:00 +15°C° 0 mm 1 mps 714 mmHg 60%
    21:00 +14°C° 0 mm 1 mps 714 mmHg 62%
    22:00 +14°C° 0 mm 1 mps 715 mmHg 64%
    23:00 +13°C° 0 mm 1 mps 715 mmHg 66%

    9 Junio, Martes

    Tiempo Temperatura Precipitaciones Viento Presión Humedad
    00:00 +13°C° 0 mm 1 mps 715 mmHg 67%
    01:00 +13°C° 0 mm 1 mps 715 mmHg 69%
    02:00 +13°C° 0 mm 1 mps 714 mmHg 70%
    03:00 +13°C° 0 mm 1 mps 714 mmHg 73%
    04:00 +12°C° 0 mm 1 mps 714 mmHg 75%
    05:00 +12°C° 0 mm 2 mps 714 mmHg 77%
    06:00 +12°C° 0 mm 2 mps 714 mmHg 79%
    07:00 +12°C° 0 mm 2 mps 714 mmHg 81%
    08:00 +12°C° 0 mm 2 mps 714 mmHg 83%
    09:00 +14°C° 0 mm 2 mps 714 mmHg 76%
    10:00 +16°C° 0 mm 2 mps 715 mmHg 69%
    11:00 +18°C° 0 mm 2 mps 715 mmHg 62%
    12:00 +19°C° 0 mm 2 mps 714 mmHg 60%
    13:00 +20°C° 0 mm 2 mps 713 mmHg 58%
    14:00 +20°C° 0 mm 2 mps 713 mmHg 56%
    15:00 +20°C° 0 mm 2 mps 712 mmHg 60%
    16:00 +19°C° 0 mm 2 mps 712 mmHg 65%
    17:00 +18°C° 0 mm 3 mps 712 mmHg 69%
    18:00 +18°C° 0 mm 3 mps 712 mmHg 73%
    19:00 +17°C° 0 mm 2 mps 712 mmHg 77%
    20:00 +16°C° 0 mm 2 mps 712 mmHg 82%
    21:00 +16°C° 0 mm 2 mps 712 mmHg 83%
    22:00 +15°C° 0 mm 1 mps 712 mmHg 84%
    23:00 +15°C° 0 mm 1 mps 712 mmHg 86%

    10 Junio, Miércoles

    Tiempo Temperatura Precipitaciones Viento Presión Humedad
    00:00 +14°C° 0 mm 1 mps 712 mmHg 87%
    01:00 +14°C° 0 mm 1 mps 712 mmHg 89%
    02:00 +13°C° 0 mm 1 mps 712 mmHg 91%
    03:00 +12°C° 0 mm 1 mps 711 mmHg 91%
    04:00 +12°C° 0 mm 1 mps 711 mmHg 92%
    05:00 +12°C° 0 mm 1 mps 711 mmHg 92%
    06:00 +12°C° 0 mm 1 mps 711 mmHg 92%
    07:00 +12°C° 0 mm 1 mps 711 mmHg 92%
    08:00 +13°C° 0 mm 1 mps 712 mmHg 92%
    09:00 +14°C° 0 mm 1 mps 712 mmHg 84%
    10:00 +16°C° 0 mm 2 mps 712 mmHg 75%
    11:00 +18°C° 0 mm 2 mps 712 mmHg 67%
    12:00 +19°C° 0 mm 2 mps 711 mmHg 65%
    13:00 +19°C° 0 mm 2 mps 711 mmHg 63%
    14:00 +20°C° 0 mm 2 mps 710 mmHg 61%
    15:00 +20°C° 0 mm 2 mps 710 mmHg 63%
    16:00 +19°C° 0 mm 2 mps 709 mmHg 66%
    17:00 +19°C° 0 mm 2 mps 709 mmHg 68%
    18:00 +18°C° 0 mm 2 mps 709 mmHg 72%
    19:00 +17°C° 0 mm 2 mps 710 mmHg 75%
    20:00 +16°C° 0 mm 2 mps 710 mmHg 79%
    21:00 +16°C° 0 mm 1 mps 710 mmHg 80%
    22:00 +16°C° 0 mm 1 mps 710 mmHg 81%
    23:00 +16°C° 0 mm 1 mps 710 mmHg 82%

    11 Junio, Jueves

    Tiempo Temperatura Precipitaciones Viento Presión Humedad
    00:00 +15°C° 0 mm 1 mps 710 mmHg 84%
    01:00 +15°C° 0 mm 1 mps 710 mmHg 85%
    02:00 +14°C° 0 mm 1 mps 709 mmHg 87%
    03:00 +14°C° 0 mm 1 mps 709 mmHg 86%
    04:00 +13°C° 0 mm 1 mps 709 mmHg 85%
    05:00 +13°C° 0 mm 1 mps 708 mmHg 84%
    06:00 +13°C° 0 mm 1 mps 709 mmHg 83%
    07:00 +14°C° 0 mm 1 mps 710 mmHg 82%
    08:00 +14°C° 0 mm 1 mps 710 mmHg 82%
    09:00 +16°C° 0 mm 1 mps 711 mmHg 74%
    10:00 +18°C° 0 mm 2 mps 711 mmHg 65%
    11:00 +20°C° 0 mm 2 mps 711 mmHg 57%
    12:00 +21°C° 0 mm 2 mps 711 mmHg 54%
    13:00 +21°C° 0 mm 2 mps 711 mmHg 52%
    14:00 +23°C° 0 mm 2 mps 710 mmHg 49%
    15:00 +23°C° 0 mm 2 mps 710 mmHg 51%
    16:00 +21°C° 0 mm 2 mps 710 mmHg 53%
    17:00 +22°C° 0 mm 1 mps 710 mmHg 54%
    18:00 +20°C° 0 mm 1 mps 711 mmHg 60%
    19:00 +19°C° 0 mm 1 mps 711 mmHg 65%
    20:00 +16°C° 0 mm 1 mps 711 mmHg 70%
    21:00 +16°C° 0 mm 1 mps 711 mmHg 72%
    22:00 +15°C° 0 mm 1 mps 711 mmHg 74%
    23:00 +15°C° 0 mm 1 mps 711 mmHg 76%
    Mostrar más